Location: Brookview Estates
(36.0476°N, 86.6931°W)
Time: 01:28:30
(UTC+00:00)

USA 81 - Pass Details

Date: 30 March 2020
Orbit: 785 x 788 km, 85.0° (Epoch: 30 May)

Event Time Altitude Azimuth Distance (km) Brightness Sun altitude
Rises 01:00:51 0° 356° (N) 3,284 7.5 -11.6°
Reaches altitude 10° 01:03:13 10° 357° (N) 2,351 6.7 -12.1°
Maximum altitude 01:08:31 85° 87° (E) 793 4.0 -13.1°
Drops below altitude 10° 01:13:46 10° 176° (S) 2,335 6.3 -14.1°
Sets 01:16:06 0° 176° (S) 3,259 7.1 -14.6°
